AWOS - Automated Weather Observation System

 

0
0
0
0

 

AWOS from is a family of real-time weather observation systems specially designed to detect, report and disseminate weather conditions at airports. It intended use is for various sized of airports, ranging from small domestic landing strips or remotely operated airports to large international airports.

We can offer a turn-key solution including sensors, installation, training comissioning etc, or we can offer you just the customized software package and the rest is done by the customer himself or by a 3rd party. We can also offer the sensors preferred by the customer or we can use the sensors existing at the airport today and implement them in the new AWOS system.

Real Time Data from Combitech in Linköping

METAR CABX 280950Z AUTO VRB05KT 9999 R01/P2000N R19///// HZ FEW062/// 11/M05 Q1008

Linköping Sweden, Lat: 58.39172, Lon: 15.56505

 

 

 

 

 

AWOS Training

Do you need to update your AWOS skills? Read more about AWOS7 Training and register your interest at:


Combitech at AERO Friedrichshafen 5-8 April

The Combitech AWOS/ATIS team will participate at AERO Friedrichshafen 5-8 April, 2017.


Show all


AWOS Airport weather data:
     http://wx.awos.se

 

2017-04-28 10:15:17